User: anonymous   Login
Location: Unspecified
(0.0000°N, 0.0000°E)
Time: 03:28:12
(UTC+00:00)
Language:

MUOS 4 - Orbit

View from above orbital plane
View from above orbital plane
View from above satellite
View from above satellite

Ground track
Ground track

The orbit data is extracted from the following two-line orbital elements,

1 40887U 15044A   17164.98067502 0.00000000  00000-0  00000-0 0    00
2 40887   4.3396 330.5159 0058827   4.4371 355.6408  1.00270000    00
Epoch (UTC): 13 June 2017 23:32:10
Eccentricity: 0.0058827
inclination: 4.3396°
perigee height: 35538 km
apogee height: 36035 km
right ascension of ascending node: 330.5159°
argument of perigee: 4.4371°
revolutions per day: 1.00270000
mean anomaly at epoch: 355.6408°
orbit number at epoch: 0

The dashed part of the orbit path shows where the satellite is in the earth's shadow,  

DLR